sat.trackr.live / text

‹ back to catalog

STARLINK-3690

NORAD 51964 · 2022-025J

PAYLOAD ACTIVE UNKNOWN

§ Identity

Operator
Country
US
Launch date
2022-03-09
Launch site
AFETR
Launch vehicle
Mass (kg)
RCS (m²)

Purposes: comms

External: N2YO · Heavens-Above · Gunter

§ Orbital elements

Epoch: 2026-09-19T13:23:51.253440Z

Period
94.01 min
Inclination
53.1607°
Eccentricity
0.0001132
Mean motion
15.31696625 rev/d
Perigee alt
470.0 km
Apogee alt
471.5 km
Semi-major
6,848.9 km
B*
2.4416e-5
RAAN
202.0523°
Arg perigee
93.6870°
Mean anomaly
266.4261°
Rev number
25,072

§ Raw data

STARLINK-36901 51964U 22025J   26262.55823210  .00000393  00000+0  24416-4 0  99952 51964  53.1607 202.0523 0001132  93.6870 266.4261 15.31696625250720

JSON: /api/v1/satellites/51964 · /tle

For live sub-satellite position, see the globe view (requires WebGL).

§ Visibility from observer

Set your observer location to see the next 7 days of passes ≥ 10°. The values pass through the URL so the page stays shareable.

No JS? Fill the form by hand. The geolocation button needs JavaScript.